Location: Sihaung
(22.8641°N, 94.0549°E)
Time: 16:36:47
(UTC+00:00)

Cosmos 1354 Rocket - Pass Details

Date: 03 March 2021
Orbit: 765 x 782 km, 74.0° (Epoch: 13 April)

Event Time Altitude Azimuth Distance (km) Brightness Sun altitude
Rises 13:25:02 0° 349° (N) 3,230 7.4 -23.1°
Reaches altitude 10° 13:27:26 10° 353° (N) 2,301 6.6 -23.7°
Enters shadow 13:32:04 61° 40° (NE) 866 4.0 -24.7°
